Regional Weather Roundup
Issued by NWS Jackson, KY

Home | Current Version | Previous Version | Graphics & Text | Print | Product List | Glossary On
Versions: 1 2 3 4 5 6 7 8 9 10 11 12 13 14 15 16 17 18 19 20 21 22 23 24 25 26 27 28 29 30 31 32 33 34 35 36 37 38 39 40 41 42 43 44 45 46 47 48 49 50
000
ASUS43 KJKL 012211
RWRJKL

EAST KENTUCKY HOURLY WEATHER ROUNDUP
NATIONAL WEATHER SERVICE JACKSON KY
600 PM EDT FRI AUG 01 2014

NOTE: "FAIR" INDICATES FEW OR NO CLOUDS BELOW 12,000 FEET WITH
NO SIGNIFICANT WEATHER AND/OR OBSTRUCTIONS TO VISIBILITY.

* THESE REPORTS ARE NOT UNDER NWS QUALITY CONTROL AND MAY NOT
  REPORT WEATHER SUCH AS PRECIPITATION AND FOG.

KYZ079-080-083-085-087-088-110-112-115-119-120-012300
...EASTERN KENTUCKY...

CITY           SKY/WX    TMP DP  RH WIND       PRES   REMARKS
JACKSON        MOSUNNY   79  61  53 CALM      30.06F
LONDON         PTSUNNY   82  61  48 CALM      30.05F
SOMERSET*      PTSUNNY   81  61  50 NE3       30.05F
MONTICELLO*    SUNNY     86  65  49 VRB5      30.06F
WILLIAMSBURG*    N/A    N/A N/A N/A CALM        N/A
MIDDLESBORO*   PTSUNNY   80  65  61 NE5       30.06S
HARLAN APT*    PTCLDY    79  61  53 MISG      30.07S
BLACK MTN*       N/A     68  61  77 CALM        N/A
PIKEVILLE APT* MOSUNNY   77  63  61 SE6       30.08F
BIG SANDY*     PTCLDY    82  65  55 SE6       30.06F
MOREHEAD APT*    N/A     81  63  54 NE7       30.07F
$$

KYZ035-036-041-042-044-050-067-078-099-012300
...CENTRAL KENTUCKY...

CITY           SKY/WX    TMP DP  RH WIND       PRES   REMARKS
MT STERLING*   MOSUNNY   81  61  50 NE6       30.06F
FLEMING/MASON* PTSUNNY   82  59  44 CALM      30.06F
DANVILLE*      MOSUNNY   79  61  53 NE5       30.06F
RICHMOND*      MOSUNNY   81  61  50 CALM      30.05F
LEXINGTON      MOSUNNY   86  58  38 CALM      30.05F
FRANKFORT      CLOUDY    85  56  37 VRB3      30.04F
$$

KYZ091>093-OHZ055-061-077-WVZ005-015-034-035-042-012300
...SOUTHERN OHIO/WEST VIRGINIA...

CITY           SKY/WX    TMP DP  RH WIND       PRES   REMARKS
COVINGTON      MOSUNNY   84  57  39 NE3       30.05F
COLUMBUS       MOSUNNY   85  57  38 E5        30.05F
DAYTON         PTSUNNY   82  59  45 SE6       30.08F
WILMINGTON     SUNNY     80  60  50 CALM      30.07S
HUNTINGTON     MOSUNNY   78  65  63 N6        30.04F
CHARLESTON     PTSUNNY   82  63  52 SE7       30.06F
PINEVILLE*     PTSUNNY   80  63  57 MISG      30.17R
BECKLEY        MOSUNNY   72  56  57 S10       30.16F
BLUEFIELD      CLOUDY    69  57  65 SE8       30.19F
$$

VAZ002-007-008-TNZ017-027-036-066-071-012300
...SOUTHWEST VIRGINIA/EAST TENNESSEE...

CITY           SKY/WX    TMP DP  RH WIND       PRES   REMARKS
WISE*          SUNNY     77  59  53 S3        30.16S
JONESVILLE*    CLEAR     81  63  54 E7        30.08F
ABINGDON*      MOSUNNY   74  60  61 SE13      30.14F
BRISTOL        MOSUNNY   77  61  57 E7        30.09F
KNOXVILLE      MOSUNNY   82  63  52 NE8       30.02S
OAK RIDGE      SUNNY     84  62  47 VRB3      30.04F
CROSSVILLE     PTSUNNY   77  62  59 VRB3      30.09F
NASHVILLE      PTSUNNY   85  57  38 CALM      30.02F
$$

...KEY TO REMARKS...
VSB - VISIBILITY IN MILES
WCI - WIND CHILL INDEX
HX  - HEAT INDEX

$$



USA.gov is the U.S. government's official web portal to all federal, state and local government web resources and services.